Aérodrome :
LOGIN :

S'inscrire | Disclaimer

   EN    FR    IT 

 










Légende :    VFR   VFR Marginal   IFR   IFR Intensif   IFR Très Intensif
Visi : 
Plafond : 
>= 8 km
>= 3000ft
5 à 8 km
1000 à 3000 ft
1500m à 5 km
500 à 1000 ft
800 à 1500m
200 à 500 ft
< 800m
< 200 ft
Symboles :   Orages  Brouillard  Fortes neiges  Fortes précipitations  Vent > 20 kt
SIGMETs :   Divers  Orages  Givrage  Turbulence  Onde Orograph.  Cendres Volcan.







- Altitude de l'aérodrome : 1959 ft
- Code IATA : HOQ


EDQM - Hof Plauen

DERNIER METAR :
  • 250650Z 23010KT 9999 -SHSN FEW030 SCT060 01/M02 Q1015

METARs EXPIRÉS :
  • 250620Z 23010KT 9999 SCT030 01/M01 Q1015
  • 250550Z 24009KT CAVOK 01/M02 Q1015

TAF TAF EDQM
Valide du 25 à 06h jusqu'au 25 à 15h UTC


250555Z 2506/2515 24010KT 9999 SCT014 SCT030
BECMG 2506/2509 29015G30KT
TEMPO 2506/2515 33020G35KT 2000 SHSNGS BKN014CB
PROB30
TEMPO 2511/2515 TSGS
Pas de NOTAMs connus pour ce terrain.



MET'MAP, la Météo Aéronautique d'un coup d'oeil ! - Copyright ORBIFLY Décembre 2007 - Disclaimer

ORBIFLY MET'MAP TEAM :

Programmation & Développement : Alexandra Zaïnal
Conception & Développement : Baudouin d'Aumeries
Co-Programmation & Développement : Marc-Olivier Méhu
Soutien technique & logistique : Manuel Goepfert

Contact : metmap@orbifly.com




SOURCES & CREDITS :

   NOAA